Weather History for Rogers, AR

Change the Weather History Date:

Sunday, August 3, 2014

  Actual Average Record
Temperature  
Mean Temperature 76 °F -  
Max Temperature 86 °F 85 °F 107 °F (2011)
Min Temperature 66 °F 66 °F 66 °F (1997)
Cooling Degree Days 11    
Growing Degree Days 26 (Base 50)    
Moisture  
Dew Point 64 °F    
Average Humidity 73    
Maximum Humidity 100    
Minimum Humidity 40    
Precipitation  
Precipitation 0.00 in - - ()
Sea Level Pressure  
Sea Level Pressure 30.12 in    
Wind  
Wind Speed 2 mph (ESE)    
Max Wind Speed 7 mph    
Max Gust Speed -    
Visibility 8 miles    
Events      
Averages and records for this station are not official NWS values.
T = Trace of Precipitation, MM = Missing Value Source: NWS Daily Summary

Daily Weather History Graph

Daily Weather History Graph

Search for Another Location

Airport:

Trip Planner

Search our weather history database for the weather conditions in past years. The results will help you decide how hot, cold, wet, or windy it might be!

Date:

Astronomy

Aug. 03, 2014 Rise Set
Actual Time 6:24 AM CDT 8:20 PM CDT
Civil Twilight 5:56 AM CDT 8:48 PM CDT
Nautical Twilight 5:22 AM CDT 9:22 PM CDT
Astronomical Twilight 4:45 AM CDT 9:59 PM CDT
Moon 1:32 PM CDT (8/3) No Moon Set
Length of Visible Light 14h 51m
Length of Day
13h 55m
Waxing Crescent, 47% of the Moon is Illuminated
Aug 3
Waxing Crescent
Aug 3
First Quarter
Aug 10
Full
Aug 17
Last Quarter
Aug 25
New

Hourly Weather History & Observations

Time (CDT) Temp. Heat Index Dew Point Humidity Pressure Visibility Wind Dir Wind Speed Gust Speed Precip Events Conditions
12:57 AM 70.0 °F - 66.0 °F 87% 30.12 in 10.0 mi Calm Calm - N/A   Clear
1:57 AM 69.1 °F - 66.0 °F 90% 30.11 in 10.0 mi Calm Calm - N/A   Clear
2:57 AM 66.9 °F - 64.9 °F 93% 30.10 in 9.0 mi Calm Calm - N/A   Clear
3:57 AM 68.0 °F - 66.0 °F 93% 30.10 in 6.0 mi ESE 3.5 mph - N/A   Clear
4:06 AM 68.0 °F - 66.2 °F 94% 30.14 in 5.0 mi SE 3.5 mph - N/A   Partly Cloudy
4:12 AM 68.0 °F - 66.2 °F 94% 30.15 in 2.0 mi Calm Calm - N/A   Scattered Clouds
4:15 AM 68.0 °F - 66.2 °F 94% 30.15 in 1.5 mi SE 3.5 mph - N/A   Mostly Cloudy
4:20 AM 68.0 °F - 66.2 °F 94% 30.15 in 2.0 mi Calm Calm - N/A   Scattered Clouds
4:26 AM 66.2 °F - 66.2 °F 100% 30.15 in 4.0 mi ESE 3.5 mph - N/A   Scattered Clouds
4:57 AM 66.9 °F - 64.9 °F 93% 30.12 in 6.0 mi SE 5.8 mph - N/A   Clear
5:57 AM 66.9 °F - 64.9 °F 93% 30.13 in 7.0 mi Calm Calm - N/A   Clear
6:57 AM 66.9 °F - 64.0 °F 90% 30.14 in 9.0 mi Calm Calm - N/A   Clear
7:57 AM 70.0 °F - 64.9 °F 84% 30.16 in 8.0 mi ESE 4.6 mph - N/A   Clear
8:57 AM 73.9 °F - 66.0 °F 76% 30.17 in 10.0 mi SE 5.8 mph - N/A   Clear
9:57 AM 78.1 °F - 66.0 °F 66% 30.16 in 10.0 mi SE 4.6 mph - N/A   Clear
10:57 AM 81.0 °F 82.7 °F 64.9 °F 58% 30.15 in 10.0 mi Variable 4.6 mph - N/A   Clear
11:57 AM 82.0 °F 83.1 °F 63.0 °F 52% 30.15 in 10.0 mi ESE 4.6 mph - N/A   Partly Cloudy
12:57 PM 84.0 °F 84.9 °F 63.0 °F 49% 30.14 in 10.0 mi Calm Calm - N/A   Mostly Cloudy
1:57 PM 84.9 °F 84.2 °F 57.9 °F 40% 30.12 in 10.0 mi East 6.9 mph - N/A   Clear
2:57 PM 84.9 °F 84.4 °F 59.0 °F 41% 30.10 in 10.0 mi Variable 4.6 mph - N/A   Clear
3:57 PM 86.0 °F 85.4 °F 59.0 °F 40% 30.08 in 10.0 mi ESE 5.8 mph - N/A   Scattered Clouds
4:57 PM 84.9 °F 84.8 °F 60.1 °F 43% 30.07 in 10.0 mi SE 6.9 mph - N/A   Clear
5:57 PM 84.0 °F 84.0 °F 60.1 °F 44% 30.06 in 10.0 mi SE 4.6 mph - N/A   Partly Cloudy
6:57 PM 82.9 °F 83.3 °F 61.0 °F 47% 30.06 in 10.0 mi North 4.6 mph - N/A   Clear
7:57 PM 79.0 °F - 64.9 °F 62% 30.06 in 10.0 mi NE 3.5 mph - N/A   Clear
8:57 PM 75.9 °F - 66.0 °F 71% 30.07 in 10.0 mi NE 3.5 mph - N/A   Clear
9:57 PM 75.0 °F - 64.9 °F 71% 30.09 in 10.0 mi East 5.8 mph - N/A   Clear
10:57 PM 72.0 °F - 66.0 °F 81% 30.09 in 10.0 mi Calm Calm - N/A   Clear